SCOUT A R/B, 3137

Orbit data source: Space-Track

SCOUT A R/B, 3137 is space debris in LEO originally from a launch on Sat, 02 Mar 1968 UTC launched from the Air Force Western Test Range (AFWTR). Debris objects in space refer to the collection of defunct objects orbiting the Earth. Examples of debris include non-operational satellites, rocket bodies, and fragments generated from explosions, collisions, or faulty payload assembly.

Loading next visibility...
Identifier
3137, 1968-012B
Orbit
LEO
Last TLE update
6 hours ago
Origin
Manufacturer
ABL
Mission
Spacecraft
Bus & Motor
ALTAIR, Unknown motor
Mass
33 kg wet, 33 kg dry
Launch date (UTC)
1968-03-02 (57 years ago)
Launch vehicle
Unknown
Launch site
Air Force Western Test Range (AFWTR)
Object type
Payload
Rocket body
Debris
Shape & HBR
Cyl, 1.5 m
Radar Cross Section
0.687 m², Medium (>0.1 m² and < 1m²)

Expand to show TLE details & history

TLE from 6 hours ago
0 SCOUT A R/B
1  3137U 68012B   25191.77169117  .00000087  00000-0  12035-3 0  9997
2  3137  90.0273 272.6162 0074525 339.5825  20.2350 13.50255568823219
Epoch: 2025-07-10T18:31Z
TLE epoch observation values (Epoch: 2025-07-10T18:31:14.117Z)
Latitude
-0.00002°
Longitude
65.8742°
Altitude
1,022.222 km
Speed
7.366 km/s
True Right ascension
18h 10m 27s
True Declination
0° 00' 00"
Sunlit
Object was in full shadow at epoch
Visualization orbit readout
Latitude
60.45175°
Longitude
-114.07721°
Altitude
1,124.546 km
Speed
7.275 km/s
Apparent Right ascension
02h 59m 24s
Apparent Declination
20° 23' 19"
Sunlit
Object is in daylight
Visualization observer readout
Local Sidereal Time
12:42:57
Azimuth
325.509° NNW
Elevation
-21.819°
Doppler factor
1
Orbital elements
Apogee altitude
1,123.863 km
Perigee altitude
1,012.872 km
Semi-major axis
7,446.505 km
Eccentricity
0.00745
Inclination
90.0273°
RAAN
272.6162°
Arg. of periapsis
339.5825°
True anomaly
Unknown
Mean anomaly
20.235°
Eccentric anomaly
Unknown
Mean motion
3.37765 °/min
Orbital period
106.58 mins
BSTAR
0.00012035
Loading maneuver chart data...
Loading SW <> Apogee altitude chart data...
Loading historical data...
Loading historical data...
Loading historical data...
Loading historical data...
Loading historical data...
Loading historical data...
Loading historical data...

SCOUT A R/B Visibility forecast

Observer location: undefined°, undefined°

Span
Click to sort rows by Start time (UTC) header in descending order
Start Az.
Max El. time (UTC)
Max El. Az.
Max El.
End time (UTC)
End Az.
11 mins2025-07-11 05:17:43.250Z155.058° SSE2025-07-11 05:23:43.250Z68.777° E38.54°2025-07-11 05:28:43.250Z9.66° NNE
8 mins2025-07-11 07:06:43.250Z240.31° WSW2025-07-11 07:09:43.250Z274.219° WNW21.328°2025-07-11 07:14:43.250Z327.673° NNW
9 mins2025-07-11 16:28:43.250Z35.545° NE2025-07-11 16:32:43.250Z76.762° E22.188°2025-07-11 16:37:43.250Z128.232° SE
11 mins2025-07-11 18:14:43.250Z349.762° N2025-07-11 18:19:43.250Z280.964° WNW39.922°2025-07-11 18:25:43.250Z203.535° SW
|